Probability
0 0 0 0 0 0 0 0 0 0 0 0 0 0 0 0 0 0 0 0 0 0 0 0 0 0 0 0 0 0 0 0 0 0 0 0 0 0
0 0 0 0 0 0 0 0 0 0 0 0 0 0 0 0 0 0 0 0 0 0 0 0 0 0 0 0 0 0 0 0 0 0 0 0 0 0
0 0 0 0 0 0 0 0 0 0 0 0 0 0 0 0 0 0 0 0 0 0 0 0 0 0 0 0 0 0 0 0 0 0 0 0 0 0
0 0 0 0 0 0 0 0 0 0 0 0 0 0 0 0 0 0 0 0 0 0 0 0 0 0 0 0 0 0 0 0 0 0 0 0 0 0
0 0 0 0 0 0 0 0 0 0 0 0 0 0 0 0 0 0 0 0 0 0 0 0 0 0 0 0 0 0 0 0 0 0 0 0 0 0
0 0 0 0 0 0 0 0 0 0 0 0 0 0 0 0 0 0 0 0 0 0 0 0 0 0 0 0 0 0 0 0 0 0 0 0 0 0
0 0 0 0 0 0 0 0 0 0 0 0 0 0 0 0 0 0 0 0 0 0 0 0 0 0 0 0 0 0 0 0 0 0 0 0 0 0
0 0 0 0 0 0 0 0 0 0 0 0 0 0 0 0 0 0 0 0 0 0 0 0 0 0 0 0 0 0 0 0 0 0 0 0 0 0
0 0 0 0 0 0 0 0 0 0 0 0 0 0 0 0 0 0 0 0 0 0 0 0 0 0 0 0 0 0 0 0 0 0 0 0 0 0
0 0 0 0 0 0 0 0 0 0 0 0 0 0 0 0 0 0 0 0 0 0 0 0 0 0 0 0 0 0 0 0 0 0 0 0 0 0
0 0 0 0 0 0 0 0 0 0 0 0 0 0 0 0 0 0 0 0 0 0 0 0 0 0 0 0 0 0 0 0 0 0 0 0 0 0
0 0 0 0 0 0 0 0 0 0 0 0 0 0 0 0 0 0 0 0 0 0 0 0 0 0 0 0 0 0 0 0 0 0 0 0 0 0
0 0 0 0 0 0 0 0 0 0 0 0 0 0 0 0 0 0 0 0 0 0 0 0 0 0 0 0 0 0 0 0 0 0 0 0 0 0
0 0 0 0 0 0 0 0 0 0 0 0 0 0 0 0 0 0 0 0 0 0 0 0 0 0 0 0 0 0 0 0 0 0 0 0 0 0
0 0 0 0 0 0 0 0 0 0 0 0 0 0 0 0 0 0 0 0 0 0 0 0 0 0 0 0 0 0 0 0 0 0 0 0 0 0
0 0 0 0 0 0 0 0 0 0 0 0 0 0 0 0 0 0 0 0 0 0 0 0 0 0 0 0 0 0 0 0 0 0 0 0 0 0
0 0 0 0 0 0 0 0 0 0 0 0 0 0 0 0 0 0 0 0 0 0 0 0 0 0 0 0 0 0 0 0 0 0 0 0 0 0
0 0 0 0 0 0 0 0 0 0 0 0 0 0 0 0 0 0 0 0 0 0 0 0 0 0 0 0 0 0 0 0 0 0 0 0 0 0
0 0 0 0 0 0 0 0 0 0 0 0 0 0 0 0 0 0 0 0 0 0 0 0 0 0 0 0 0 0 0 0 0 0 0 0 0 0
0 0 0 0 0 0 0 0 0 0 0 0 0 0 0 0 0 0 0 0 0 0 0 0 0 0 0 0 0 0 0 0 0 0 0 0 0 0
0 0 0 0 0 0 0 0 0 0 0 0 0 0 0 0 0 0 0 0 0 0 0 0 0 0 0 0 0 0 0 0 0 0 0 0 0 0
0 0 0 0 0 0 0 0 0 0 0 0 0 0 0 0 0 0 0 0 0 0 0 0 0 0 0 0 0 0 0 0 0 0 0 0 0 0
0 0 0 0 0 0 0 0 0 0 0 0 0 0 0 0 0 0 0 0 0 0 0 0 0 0 0 0 0 0 0 0 0 0 0 0 0 0
Wind_Speed
1 2 2 2 2 2 2 2 3 5 6 3 2 2 3 3 7 5 6 12 14 15 15 15 16 16 17 17 17 18 18 18 19 19 19 20 20 21
2 2 2 2 2 2 2 3 3 5 6 4 4 4 5 5 9 6 7 14 13 14 15 15 16 16 17 17 18 18 18 19 19 19 20 20 20 21
2 2 3 3 2 2 2 2 3 4 6 6 4 5 5 6 7 6 6 6 7 13 15 15 16 17 17 17 18 18 18 18 19 19 19 20 20 21
3 3 4 3 3 3 3 3 3 4 5 8 6 5 5 6 6 7 7 6 6 12 14 15 16 16 17 17 18 18 18 18 19 19 19 20 20 21
3 4 4 4 4 3 3 3 3 4 4 6 7 5 5 5 6 7 7 6 7 9 12 13 15 16 17 17 17 18 18 18 18 19 19 20 20 21
4 4 4 4 5 5 4 4 4 4 5 5 6 6 5 5 5 6 7 5 6 7 8 10 13 15 16 17 17 17 17 17 18 18 19 19 20 21
4 4 4 5 6 5 5 5 5 4 5 5 6 6 6 6 6 6 7 7 6 4 5 6 7 7 8 12 14 16 16 17 18 18 19 19 20 21
4 4 5 5 6 8 8 8 7 6 6 6 6 7 8 7 6 6 7 8 7 3 6 7 5 7 7 6 13 17 17 17 18 18 19 19 20 21
5 4 4 4 5 5 7 9 8 9 9 7 8 8 8 7 7 8 7 7 8 7 6 8 5 7 7 8 16 17 17 18 18 18 19 20 20 21
4 4 5 5 5 6 6 7 6 6 8 7 7 7 7 7 6 7 8 7 7 5 4 6 6 7 7 7 13 16 17 18 19 19 20 20 21 21
5 5 5 5 8 9 7 7 7 6 7 9 9 9 11 10 8 5 4 5 6 5 3 4 5 7 7 6 8 14 16 18 19 20 21 21 21 20
4 5 6 7 9 10 7 6 7 7 6 6 7 8 7 7 8 5 4 5 5 5 2 3 4 5 7 5 5 6 9 14 18 20 20 20 21 13
4 4 4 9 11 11 9 6 8 8 5 5 5 5 4 4 4 4 4 5 5 6 4 3 4 4 5 8 7 6 6 7 9 11 15 19 20 16
5 4 5 9 11 11 8 8 10 7 3 4 4 5 4 4 4 5 5 5 6 8 7 5 5 5 6 8 9 7 6 7 8 9 9 15 16 18
4 7 9 10 10 7 8 9 6 3 3 4 5 5 5 5 5 4 4 5 6 6 6 6 6 6 6 7 8 9 9 8 6 7 8 9 9 9
4 5 8 9 7 6 5 4 3 3 4 4 5 5 4 4 4 4 4 4 4 5 4 5 6 7 7 8 9 10 8 8 8 9 9 9 9 8
3 2 3 3 4 4 3 3 3 3 4 4 4 4 5 4 4 4 4 3 4 6 6 4 4 6 8 8 8 9 8 8 9 9 9 11 9 8
2 3 4 4 4 5 5 5 4 4 4 4 4 4 5 5 5 4 4 4 5 6 6 6 5 6 5 6 9 8 7 8 8 9 8 10 12 9
3 4 4 4 5 5 5 5 5 5 4 4 5 4 5 5 5 5 5 5 5 6 6 5 4 4 7 9 7 6 7 8 9 8 8 8 11 12
4 4 5 5 5 5 5 5 5 4 4 4 5 4 4 4 5 5 5 5 6 6 6 5 4 4 6 8 8 9 10 9 8 9 9 9 10 14
4 5 5 5 5 5 5 5 5 5 5 5 5 5 4 4 5 5 5 7 6 5 6 7 6 8 6 5 7 8 8 10 12 10 10 10 10 9
5 5 5 5 5 5 5 4 4 5 5 5 5 4 4 4 5 6 5 5 5 6 7 7 6 5 4 5 8 10 11 10 11 15 14 12 8 9
5 5 5 5 5 4 4 5 5 5 5 5 5 4 4 4 5 5 5 5 5 6 6 6 5 4 5 5 7 8 11 12 9 10 9 12 15 17
Wind_Direction
318 306 290 290 290 282 280 269 269 286 289 281 293 302 308 306 316 314 311 314 316 317 317 317 317 317 315 315 314 313 313 314 314 313 313 312 312 311
321 312 298 288 281 280 277 273 263 263 276 285 286 301 310 312 314 310 303 311 310 310 314 316 315 314 313 313 312 311 312 311 311 311 311 311 310 309
317 309 300 294 289 285 276 271 271 267 273 286 289 298 299 305 308 302 298 297 298 305 309 312 313 313 311 310 310 310 310 310 311 310 310 310 309 309
300 298 294 295 290 285 280 276 272 269 272 285 293 295 293 298 299 297 304 303 297 301 306 309 310 311 311 310 310 310 309 308 308 308 308 308 308 308
294 292 290 291 291 289 282 278 278 281 274 280 289 294 293 299 301 299 296 293 299 301 303 306 308 309 309 309 310 310 307 306 306 307 308 308 308 308
297 292 290 287 284 285 283 278 278 283 283 282 287 294 296 296 295 300 301 298 300 302 300 304 306 308 307 308 308 307 306 306 307 308 308 308 307 307
302 298 294 292 287 285 285 284 284 283 284 285 289 295 297 306 305 302 300 305 297 291 297 301 302 299 301 304 306 303 305 307 308 308 308 309 308 306
297 299 298 293 293 294 294 293 289 285 285 285 287 290 295 300 303 303 305 310 302 300 306 299 297 295 297 296 303 306 307 308 309 309 309 309 309 308
290 295 297 298 292 291 294 296 295 289 282 279 282 284 291 294 296 296 293 292 289 299 303 291 293 292 296 301 306 306 308 310 310 310 311 311 310 309
283 284 288 293 294 297 294 292 289 287 286 278 274 279 283 287 282 284 287 290 288 282 290 286 294 294 299 295 298 302 310 314 314 313 313 312 312 311
289 289 286 289 294 301 302 296 295 294 296 290 289 293 295 298 301 299 294 296 294 290 279 277 295 306 297 285 290 302 308 311 311 312 312 312 312 312
295 292 286 292 300 304 300 295 294 296 303 305 301 300 298 294 296 285 278 278 287 288 278 291 294 315 304 283 287 298 301 305 309 311 310 312 312 311
291 293 291 295 298 300 301 295 294 306 306 298 294 295 297 292 285 282 279 273 271 269 273 290 285 286 275 294 297 292 294 302 307 304 306 309 310 310
284 289 291 298 301 302 301 301 308 314 309 302 296 291 288 287 289 287 282 278 272 272 273 270 267 273 283 290 292 297 298 298 299 300 301 305 308 308
282 289 297 301 305 302 301 308 314 307 299 293 286 285 285 287 292 292 288 286 284 278 273 271 269 274 270 274 283 291 304 303 294 298 302 304 304 305
288 297 298 299 299 303 308 308 302 289 283 280 286 292 297 296 293 294 292 302 300 294 279 270 270 272 275 273 273 280 288 290 300 302 302 298 297 294
317 310 300 299 296 297 298 294 293 293 287 285 290 296 297 297 296 298 291 293 283 290 300 301 288 277 269 269 274 273 282 288 290 301 306 302 296 292
301 279 279 281 284 288 290 292 287 283 286 288 284 282 286 290 294 296 289 283 284 288 293 302 312 314 300 269 245 265 281 290 296 298 297 298 298 295
260 265 269 272 276 278 279 280 281 283 286 284 283 283 284 285 288 290 291 289 286 287 290 293 299 306 310 308 288 266 289 298 300 298 292 289 291 296
256 261 265 268 270 272 275 278 282 285 281 279 280 280 280 283 285 283 283 283 287 291 293 291 284 281 277 285 291 293 292 290 295 296 297 293 284 290
262 263 264 266 269 269 272 274 275 275 276 277 274 274 274 276 280 283 285 285 284 284 286 287 287 292 287 287 290 292 292 294 299 296 300 302 303 303
259 262 265 264 265 266 269 270 273 274 273 269 271 272 272 272 275 278 280 286 286 283 283 289 298 299 290 283 289 295 303 308 306 303 297 290 296 299
259 261 264 265 265 265 265 265 265 268 268 265 267 268 269 272 274 275 278 280 285 292 300 302 307 302 292 286 290 295 301 309 313 314 304 304 304 297